Date String (YYYY-MM-DD hh:mm:ss) UTC,Instrument flags,absolute air pressure of the measurement (hPa),sample flow rate (lpm),inlet stack bypass flow (lpm),air temperature of the measurement (°C),ambient temperature measured by the external sensor (°C),aerosol sample conditioner tube jacket temperature (°C),OPC LED temperature (°C),internal box temperature (°C),relative humidity of the measurement (%),span deviation,mass concentration of particles derived from Lorenz-Mie calculation of OPC scattering (μg/m³),mass concentration of particles derived from Lorenz-Mie calculation of OPC scattering (μg/m³),mass concentration of particles derived from Lorenz-Mie calculation of OPC scattering (μg/m³)
DateTimeUTC,F1_M11,P_M11,Q1_M11,Q2_M11,T1_M11,T2_M11,T3_M11,T4_M11,T5_M11,U1_M11,ZSPAN_M11,X0_M11,X2_M11,X1_M11
2023-10-22 09:00:00,SystemResetWarning,0827.2,5.00,000.00,029.3,027.9,000.0,037.6,030.9,15.8,0000.0,0022.00,0004.36,0001.69
2023-10-22 09:01:00,SystemResetWarning,0827.2,5.00,000.00,029.3,027.9,000.0,037.6,030.9,15.9,0000.0,0021.27,0004.41,0001.68
2023-10-22 09:02:00,SystemResetWarning,0827.2,5.00,000.00,029.3,027.9,000.0,037.6,030.9,15.8,0000.0,0020.94,0004.44,0001.69
2023-10-22 09:03:00,SystemResetWarning,0827.1,4.99,000.00,029.3,027.9,000.0,037.7,030.9,15.7,0000.0,0020.26,0004.47,0001.70
2023-10-22 09:04:00,SystemResetWarning,0827.1,5.00,000.00,029.3,027.9,000.0,037.7,030.9,15.7,0000.0,0020.51,0004.50,0001.71
2023-10-22 09:05:00,SystemResetWarning,0827.1,5.00,000.00,029.3,027.9,000.0,037.7,030.9,15.6,0000.0,0021.62,0004.54,0001.72
2023-10-22 09:06:00,SystemResetWarning,0827.2,5.00,000.00,029.3,027.9,000.0,037.7,030.9,15.6,0000.0,0022.32,0004.54,0001.74
2023-10-22 09:07:00,SystemResetWarning,0827.1,5.00,000.00,029.3,027.9,000.0,037.7,030.9,15.5,0000.0,0023.80,0004.55,0001.73
2023-10-22 09:08:00,SystemResetWarning,0827.2,5.00,000.00,029.3,027.9,000.0,037.7,030.9,15.5,0000.0,0024.80,0004.63,0001.73
2023-10-22 09:09:00,SystemResetWarning,0827.1,5.01,000.00,029.3,027.9,000.0,037.7,030.9,15.5,0000.0,0024.84,0004.61,0001.73
2023-10-22 09:10:00,SystemResetWarning,0827.1,5.01,000.00,029.3,027.9,000.0,037.7,030.9,15.4,0000.0,0024.31,0004.58,0001.72
2023-10-22 09:11:00,SystemResetWarning,0827.1,5.00,000.00,029.3,027.9,000.0,037.7,030.9,15.4,0000.0,0023.94,0004.59,0001.73
2023-10-22 09:12:00,SystemResetWarning,0827.1,5.00,000.00,029.3,027.9,000.0,037.7,030.9,15.4,0000.0,0024.61,0004.55,0001.75
2023-10-22 09:13:00,SystemResetWarning,0827.1,5.00,000.00,029.3,027.9,000.0,037.7,030.9,15.4,0000.0,0024.21,0004.50,0001.75
2023-10-22 09:14:00,SystemResetWarning,0827.1,4.99,000.00,029.3,027.9,000.0,037.8,030.9,15.4,0000.0,0024.08,0004.47,0001.74
2023-10-22 09:15:00,SystemResetWarning,0827.1,5.00,000.00,029.3,027.8,000.0,037.8,030.9,15.5,0000.0,0023.93,0004.45,0001.73
2023-10-22 09:16:00,SystemResetWarning,0827.1,4.99,000.00,029.3,026.0,000.0,037.7,030.8,15.5,0000.0,0023.35,0004.48,0001.74
2023-10-22 09:17:00,SystemResetWarning,0827.1,5.00,000.00,029.2,024.4,000.0,037.6,030.6,15.5,0000.0,0023.41,0004.50,0001.74
2023-10-22 09:18:00,SystemResetWarning,0827.1,5.00,000.00,029.1,024.2,000.0,037.6,030.3,15.6,0000.0,0021.76,0004.50,0001.75
2023-10-22 09:19:00,SystemResetWarning,0827.1,5.01,000.00,028.9,024.5,000.0,037.5,030.1,15.9,0000.0,0021.33,0004.45,0001.77
2023-10-22 09:20:00,SystemResetWarning,0827.0,5.00,000.00,028.8,024.9,000.0,037.5,030.1,15.9,0000.0,0021.76,0004.50,0001.76
2023-10-22 09:21:00,SystemResetWarning,0827.1,5.00,000.00,028.7,025.4,000.0,037.5,030.1,16.0,0000.0,0021.90,0004.53,0001.78
2023-10-22 09:22:00,SystemResetWarning,0827.0,5.00,000.00,028.7,025.7,000.0,037.4,030.1,16.0,0000.0,0022.36,0004.52,0001.77
2023-10-22 09:23:00,SystemResetWarning,0827.1,5.00,000.00,028.7,026.0,000.0,037.4,030.2,16.0,0000.0,0021.34,0004.50,0001.76
2023-10-22 09:24:00,SystemResetWarning,0827.1,5.00,000.00,028.7,026.3,000.0,037.4,030.2,15.9,0000.0,0021.49,0004.45,0001.74
2023-10-22 09:25:00,SystemResetWarning,0827.1,5.00,000.00,028.7,026.5,000.0,037.4,030.2,16.0,0000.0,0020.83,0004.41,0001.74
2023-10-22 09:26:00,SystemResetWarning,0827.1,5.00,000.00,028.7,026.7,000.0,037.3,030.2,16.0,0000.0,0021.59,0004.41,0001.75
2023-10-22 09:27:00,SystemResetWarning,0827.0,5.00,000.00,028.7,026.8,000.0,037.3,030.3,15.9,0000.0,0021.71,0004.35,0001.74
2023-10-22 09:28:00,SystemResetWarning,0827.1,5.01,000.00,028.7,026.9,000.0,037.3,030.3,15.9,0000.0,0020.82,0004.39,0001.74
2023-10-22 09:29:00,SystemResetWarning,0827.1,5.00,000.00,028.7,027.0,000.0,037.3,030.3,15.9,0000.0,0021.56,0004.43,0001.76
2023-10-22 09:30:00,SystemResetWarning,0827.1,5.01,000.00,028.7,027.1,000.0,037.3,030.3,15.9,0000.0,0021.74,0004.49,0001.75
2023-10-22 09:31:00,SystemResetWarning,0827.1,5.00,000.00,028.7,027.1,000.0,037.3,030.3,15.9,0000.0,0020.99,0004.47,0001.75
2023-10-22 09:32:00,SystemResetWarning,0827.1,4.99,000.00,028.8,027.2,000.0,037.3,030.3,15.9,0000.0,0021.10,0004.44,0001.75
2023-10-22 09:33:00,SystemResetWarning,0827.0,4.99,000.00,028.8,027.2,000.0,037.3,030.4,15.8,0000.0,0021.09,0004.43,0001.74
2023-10-22 09:34:00,SystemResetWarning,0827.0,5.00,000.00,028.8,027.3,000.0,037.3,030.4,15.7,0000.0,0020.48,0004.53,0001.74
2023-10-22 09:35:00,SystemResetWarning,0827.1,5.01,000.00,028.8,027.3,000.0,037.3,030.4,15.5,0000.0,0020.78,0004.64,0001.76
2023-10-22 09:36:00,SystemResetWarning,0827.0,5.01,000.00,028.8,027.3,000.0,037.3,030.4,15.6,0000.0,0021.01,0004.68,0001.75
2023-10-22 09:37:00,SystemResetWarning,0827.0,5.01,000.00,028.8,027.3,000.0,037.3,030.4,15.4,0000.0,0021.34,0004.71,0001.75
2023-10-22 09:38:00,SystemResetWarning,0827.0,5.00,000.00,028.8,027.4,000.0,037.3,030.4,15.6,0000.0,0020.75,0004.75,0001.74
2023-10-22 09:39:00,SystemResetWarning,0827.0,5.00,000.00,028.8,027.4,000.0,037.3,030.4,15.8,0000.0,0020.38,0004.65,0001.74
2023-10-22 09:40:00,SystemResetWarning,0827.0,5.00,000.00,028.8,027.4,000.0,037.3,030.5,15.7,0000.0,0020.43,0004.57,0001.71
2023-10-22 09:41:00,SystemResetWarning,0827.0,5.00,000.00,028.9,027.5,000.0,037.3,030.5,15.6,0000.0,0019.99,0004.53,0001.70
2023-10-22 09:42:00,SystemResetWarning,0827.0,5.00,000.00,028.9,027.5,000.0,037.3,030.5,15.6,0000.0,0019.69,0004.52,0001.71
2023-10-22 09:43:00,SystemResetWarning,0826.9,5.00,000.00,028.9,027.5,000.0,037.3,030.5,15.5,0000.0,0018.74,0004.60,0001.74
2023-10-22 09:44:00,SystemResetWarning,0827.0,5.00,000.00,028.9,027.5,000.0,037.3,030.5,15.5,0000.0,0018.01,0004.64,0001.77
2023-10-22 09:45:00,SystemResetWarning,0827.0,5.00,000.00,028.9,027.5,000.0,037.3,030.6,15.5,0000.0,0017.88,0004.60,0001.79
2023-10-22 09:46:00,SystemResetWarning,0826.9,5.00,000.00,028.9,027.5,000.0,037.3,030.6,15.5,0000.0,0017.71,0004.58,0001.78
2023-10-22 09:47:00,SystemResetWarning,0826.9,5.01,000.00,028.9,027.5,000.0,037.3,030.6,15.6,0000.0,0017.62,0004.57,0001.80
2023-10-22 09:48:00,SystemResetWarning,0826.9,5.01,000.00,028.9,027.5,000.0,037.3,030.6,15.6,0000.0,0017.05,0004.57,0001.80
2023-10-22 09:49:00,SystemResetWarning,0826.9,4.99,000.00,028.9,027.5,000.0,037.3,030.6,15.6,0000.0,0016.41,0004.55,0001.82
2023-10-22 09:50:00,SystemResetWarning,0826.8,5.00,000.00,028.9,027.5,000.0,037.4,030.6,15.5,0000.0,0017.03,0004.61,0001.83
2023-10-22 09:51:00,SystemResetWarning,0826.9,4.99,000.00,029.0,027.5,000.0,037.4,030.6,15.5,0000.0,0017.19,0004.67,0001.84
2023-10-22 09:52:00,SystemResetWarning,0826.9,5.00,000.00,029.0,027.5,000.0,037.4,030.6,15.5,0000.0,0018.18,0004.64,0001.85
2023-10-22 09:53:00,SystemResetWarning,0826.9,5.01,000.00,029.0,027.5,000.0,037.4,030.6,15.5,0000.0,0017.63,0004.59,0001.83
2023-10-22 09:54:00,SystemResetWarning,0827.0,5.00,000.00,029.0,027.5,000.0,037.4,030.6,15.5,0000.0,0017.68,0004.56,0001.81
2023-10-22 09:55:00,SystemResetWarning,0827.0,5.01,000.00,029.0,027.5,000.0,037.4,030.6,15.5,0000.0,0017.75,0004.46,0001.78
2023-10-22 09:56:00,SystemResetWarning,0827.0,5.00,000.00,029.0,027.6,000.0,037.4,030.6,15.6,0000.0,0017.90,0004.46,0001.77
2023-10-22 09:57:00,SystemResetWarning,0827.0,5.00,000.00,029.0,027.5,000.0,037.4,030.6,15.5,0000.0,0018.24,0004.48,0001.78
2023-10-22 09:58:00,SystemResetWarning,0827.0,5.00,000.00,029.0,027.6,000.0,037.4,030.6,15.5,0000.0,0018.87,0004.58,0001.78
2023-10-22 09:59:00,SystemResetWarning,0826.9,5.00,000.00,029.0,027.6,000.0,037.4,030.6,15.5,0000.0,0019.51,0004.57,0001.79
